Regional Weather Roundup
Issued by NWS

Home | Current Version | Previous Version | Text Only | Print | Product List | Glossary On
Versions: 1 2 3 4 5 6 7 8 9 10 11 12 13 14 15 16 17 18 19 20 21 22 23 24 25 26 27 28 29 30 31 32 33 34 35 36 37 38 39 40 41 42 43 44 45 46 47 48 49 50
000
ASUS43 KLSX 190907
RWRMO

WEATHER SUMMARY FOR MISSOURI
NATIONAL WEATHER SERVICE SPRINGFIELD MO
300 AM CST FRI JAN 19 2018

NOTE: "FAIR" INDICATES FEW OR NO CLOUDS BELOW 12,000 FEET WITH NO
       SIGNIFICANT WEATHER AND/OR OBSTRUCTIONS TO VISIBILITY.
       CURRENT SKY AND/OR WEATHER CONDITIONS ARE NOT AVAILABLE FOR
       CHILLICOTHE AND FARMINGTON.

MOZ001>031-035>038-043-044-053-054-191000-
...NORTHERN AND WESTERN MISSOURI...

CITY           SKY/WX    TMP DP  RH WIND       PRES   REMARKS
KANSAS CTY INT CLOUDY    33  19  56 SW18      29.97F WCI  22
KANSAS C DTWN  CLOUDY    37  18  46 SW15      29.99F WCI  28
LEE`S SUMMIT   CLOUDY    34  18  52 SW15      30.01S WCI  24
ST JOSEPH      CLOUDY    34  23  64 SW10      29.95F WCI  26
CHILLICOTHE      N/A     30  19  63 S7        29.98S WCI  23
KIRKSVILLE     CLOUDY    31  21  66 SW12      29.97S WCI  22

$$
MOZ066>068-077>081-088>096-101>105-191000-
...SOUTHWEST MISSOURI...

CITY           SKY/WX    TMP DP  RH WIND       PRES   REMARKS
SPRINGFIELD    CLOUDY    27  13  55 S10       30.11F WCI  17
JOPLIN         CLOUDY    32  15  49 S16       30.12F WCI  21

$$
MOZ032>034-039>042-045>050-055>058-069>072-191000-
...CENTRAL MISSOURI...

CITY           SKY/WX    TMP DP  RH WIND       PRES   REMARKS
COLUMBIA       CLOUDY    31  14  49 SW15      30.06S WCI  20
JEFFERSON CITY CLOUDY    32  14  47 SE3       30.10S
ROLLA          CLOUDY    30  12  47 SW13      30.10S WCI  20
SEDALIA        CLOUDY    34  18  52 SW15      30.05F WCI  24
WHITEMAN AFB   CLEAR     31  16  54 SW15      29.99F WCI  20
WARRENSBURG    CLOUDY    32  18  55 S9        30.04F WCI  24
OSAGE BEACH    CLOUDY    34  13  41 SW12      30.11S WCI  25

$$
MOZ051-052-059>065-191000-
...EAST CENTRAL MISSOURI...

CITY           SKY/WX    TMP DP  RH WIND       PRES   REMARKS
ST LOUIS INTL  CLOUDY    33  12  41 SW12      30.11S WCI  24
SPIRIT OF STL  CLOUDY    34  12  40 SW8       30.10S WCI  27
ST CHARLES     CLOUDY    23  15  71 S3        30.10F

$$
MOZ072>076-082>087-097>100-106>115-191000-
...SOUTH CENTRAL AND SOUTHEAST MISSOURI...

CITY           SKY/WX    TMP DP  RH WIND       PRES   REMARKS
CAPE GIRARDEAU FAIR      19  15  84 S6        30.24F WCI  11
FARMINGTON     CLOUDY    25  17  72 S9        30.15F WCI  15
POPLAR BLUFF   FAIR      22  17  81 SW6       30.24S WCI  14
WEST PLAINS    CLOUDY    28  11  48 SW9       30.15F WCI  19

$$



USA.gov is the U.S. government's official web portal to all federal, state and local government web resources and services.